CW5494 Weather Reports


Display with metric or nautical units.
time (UTC)temp
F
wind
direction
speed
MPH
gust
MPH
rain 1hr
in
rain 24hr
in
rain mn
in
humidity
%
barometer
mb
20180923065125 44 135 0.0 0.0 0.00 0.00 0.00 90 1023.9
20180923064526 44 127 0.0 0.0 0.00 0.00 0.00 90 1023.8
20180923063927 45 112 0.0 0.0 0.00 0.00 0.00 90 1023.9
20180923063326 45 112 0.0 0.0 0.00 0.00 0.00 90 1023.9
20180923062825 45 112 0.0 0.0 0.00 0.00 0.00 90 1023.9
20180923062226 45 116 0.0 0.0 0.00 0.00 0.00 90 1023.9
20180923061626 45 135 0.0 0.0 0.00 0.00 0.00 90 1023.9
20180923061027 45 135 0.0 0.0 0.00 0.00 0.00 90 1023.9
20180923060431 45 135 0.0 0.0 0.00 0.00 0.00 90 1023.9
20180923055926 45 135 0.0 0.0 0.00 0.00 0.00 90 1024.1
20180923055326 46 112 0.0 0.0 0.00 0.00 0.00 90 1024.1
20180923054727 46 112 0.0 0.0 0.00 0.00 0.00 90 1024.1
20180923054226 46 112 0.0 0.0 0.00 0.00 0.00 89 1024.1
20180923053627 46 112 0.0 0.0 0.00 0.00 0.00 90 1023.9
20180923053026 46 112 0.0 0.0 0.00 0.00 0.00 89 1024.0
20180923052426 46 112 0.0 0.0 0.00 0.00 0.00 89 1024.0
20180923051827 47 112 0.0 0.0 0.00 0.00 0.00 90 1024.1
20180923051226 47 112 0.0 0.0 0.00 0.00 0.00 90 1024.1
20180923050626 47 112 0.0 0.0 0.00 0.00 0.00 89 1024.1
20180923050026 47 135 0.0 0.0 0.00 0.00 0.00 89 1023.9
20180923045525 47 135 0.0 0.0 0.00 0.00 0.00 90 1023.9
20180923044926 47 157 0.0 0.0 0.00 0.00 0.00 90 1024.0
20180923044426 47 157 0.0 0.0 0.00 0.00 0.00 89 1023.9
20180923043828 47 135 0.0 0.0 0.00 0.00 0.00 89 1023.9
20180923043326 48 135 0.0 0.0 0.00 0.00 0.00 89 1023.9
20180923042726 48 157 0.0 0.0 0.00 0.00 0.00 89 1023.9
20180923042225 48 157 0.0 0.0 0.00 0.00 0.00 89 1024.3
20180923041725 48 157 0.0 0.0 0.00 0.00 0.00 89 1024.3
20180923041126 48 157 0.0 0.0 0.00 0.00 0.00 89 1024.1
20180923040625 48 157 0.0 0.0 0.00 0.00 0.00 89 1024.2
20180923040125 48 135 0.0 0.0 0.00 0.00 0.00 89 1024.1
20180923035526 48 135 0.0 0.0 0.00 0.00 0.00 88 1024.3
20180923035025 48 135 0.0 0.0 0.00 0.00 0.00 88 1024.3
20180923034426 48 135 0.0 0.0 0.00 0.00 0.00 88 1024.2
20180923033826 48 135 0.0 0.0 0.00 0.00 0.00 88 1024.3
20180923033226 48 135 0.0 0.0 0.00 0.00 0.00 87 1024.3
20180923032726 48 135 0.0 0.0 0.00 0.00 0.00 88 1024.3
20180923032126 48 135 0.0 0.0 0.00 0.00 0.00 87 1024.3
20180923031526 48 135 0.0 0.0 0.00 0.00 0.00 87 1024.3
20180923030926 49 135 0.0 0.0 0.00 0.00 0.00 87 1024.2
20180923030425 49 135 0.0 0.0 0.00 0.00 0.00 87 1024.2
20180923025826 49 135 0.0 0.0 0.00 0.00 0.00 87 1024.1
20180923025226 49 135 0.0 0.0 0.00 0.00 0.00 86 1024.1
20180923024626 49 135 0.0 0.0 0.00 0.00 0.00 86 1024.1
20180923024026 49 135 0.0 0.0 0.00 0.00 0.00 87 1024.1
20180923023526 49 135 0.0 0.0 0.00 0.00 0.00 87 1024.3
20180923022932 49 129 0.0 0.0 0.00 0.00 0.00 87 1024.2
20180923022426 49 135 0.0 0.0 0.00 0.00 0.00 87 1024.3
20180923021827 49 135 0.0 0.0 0.00 0.00 0.00 86 1024.3
20180923021226 49 135 0.0 0.0 0.00 0.00 0.00 85 1024.2
20180923020725 49 135 0.0 0.0 0.00 0.00 0.00 85 1024.3
20180923020126 49 135 0.0 0.0 0.00 0.00 0.00 85 1024.3
20180923015526 50 135 0.0 0.0 0.00 0.00 0.00 85 1024.3
20180923014926 50 135 0.0 0.0 0.00 0.00 0.00 85 1024.3
20180923014326 50 135 0.0 0.0 0.00 0.00 0.00 85 1024.3
20180923013726 50 135 0.0 0.0 0.00 0.00 0.00 85 1024.3
20180923013225 50 135 0.0 0.0 0.00 0.00 0.00 85 1024.4
20180923012626 50 115 0.0 0.0 0.00 0.00 0.00 84 1024.4
20180923012026 50 113 0.0 0.0 0.00 0.00 0.00 84 1024.3
20180923011525 50 112 0.0 0.0 0.00 0.00 0.00 83 1024.3
20180923011025 51 112 0.0 0.0 0.00 0.00 0.00 83 1024.4
20180923010426 51 112 0.0 0.0 0.00 0.00 0.00 82 1024.6
20180923005825 51 135 0.0 0.0 0.00 0.00 0.00 82 1024.6
20180923005226 51 135 0.0 0.0 0.00 0.00 0.00 82 1024.6
20180923004726 51 135 0.0 0.0 0.00 0.00 0.00 81 1024.7
20180923004225 51 135 0.0 0.0 0.00 0.00 0.00 80 1024.6
20180923003626 52 135 0.0 0.0 0.00 0.00 0.00 81 1024.3
20180923003026 52 135 0.0 0.0 0.00 0.00 0.00 81 1024.3
20180923002427 52 136 0.0 0.0 0.00 0.00 0.00 81 1024.3
20180923001926 52 130 0.0 0.0 0.00 0.00 0.00 81 1024.3
20180923001426 52 131 0.0 0.0 0.00 0.00 0.00 81 1024.3
20180923000826 53 135 0.0 0.0 0.00 0.00 0.00 79 1024.3
20180923000325 53 135 0.0 0.0 0.00 0.00 0.00 79 1024.2
20180922235726 53 135 0.0 0.0 0.00 0.00 0.00 78 1024.1
20180922235127 54 135 0.0 0.0 0.00 0.00 0.00 78 1024.0
20180922234625 54 135 0.0 0.0 0.00 0.00 0.00 77 1023.9
20180922234027 54 135 0.0 0.0 0.00 0.00 0.00 77 1023.9
20180922233525 55 135 0.0 0.0 0.00 0.00 0.00 76 1023.9
20180922233025 55 135 0.0 0.0 0.00 0.00 0.00 75 1023.9
20180922232426 55 112 0.0 0.0 0.00 0.00 0.00 75 1023.9
20180922231827 55 112 0.0 0.0 0.00 0.00 0.00 75 1023.9
20180922231325 55 135 0.0 0.0 0.00 0.00 0.00 74 1023.9
20180922230725 56 135 0.0 0.0 0.00 0.00 0.00 74 1023.9
20180922230225 56 123 0.0 0.0 0.00 0.00 0.00 74 1024.0
20180922225724 57 135 0.0 0.0 0.00 0.00 0.00 73 1024.1
20180922225125 57 135 0.0 0.0 0.00 0.00 0.00 72 1023.9
20180922224525 57 135 0.0 0.0 0.00 0.00 0.00 71 1023.9
20180922223938 58 135 0.0 0.0 0.00 0.00 0.00 69 1023.9
20180922223326 58 135 0.0 0.0 0.00 0.00 0.00 68 1024.1
20180922222826 58 135 0.0 0.0 0.00 0.00 0.00 68 1023.9
20180922222325 58 135 0.0 0.0 0.00 0.00 0.00 66 1023.9
20180922221824 59 135 0.0 0.0 0.00 0.00 0.00 66 1023.9
20180922221225 59 157 0.0 0.0 0.00 0.00 0.00 65 1024.1
20180922220725 59 135 0.0 0.0 0.00 0.00 0.00 65 1024.1
20180922220125 59 145 0.0 0.0 0.00 0.00 0.00 65 1024.1
20180922215624 59 135 0.0 0.0 0.00 0.21 0.00 66 1024.1
20180922215025 59 135 0.0 0.0 0.00 0.21 0.00 64 1024.1
20180922214425 59 135 0.0 0.0 0.00 0.21 0.00 63 1024.0
20180922213924 59 135 0.0 0.0 0.00 0.21 0.00 61 1024.2
20180922213330 59 135 0.0 0.0 0.00 0.21 0.00 64 1024.1
20180922212725 59 135 0.0 0.0 0.00 0.21 0.00 61 1024.2
20180922212224 59 129 0.0 0.0 0.00 0.21 0.00 63 1024.2
20180922211625 59 132 0.0 0.0 0.00 0.21 0.00 64 1024.3
20180922211124 59 121 0.0 0.0 0.00 0.21 0.00 63 1024.2
20180922210524 59 139 0.0 0.0 0.00 0.21 0.00 62 1024.1
20180922210023 59 107 0.0 0.0 0.00 0.21 0.00 61 1024.0
20180922205423 59 109 0.0 0.0 0.00 0.21 0.00 61 1024.1
20180922204823 59 124 0.0 1.0 0.00 0.21 0.00 61 1024.0
20180922204223 59 121 0.0 1.0 0.00 0.21 0.00 60 1024.1
20180922203723 59 131 0.0 0.0 0.00 0.21 0.00 61 1024.1
20180922203124 59 116 0.0 1.0 0.00 0.21 0.00 60 1024.1
20180922202623 59 125 0.0 2.0 0.00 0.21 0.00 58 1024.1
20180922202024 59 102 0.0 2.0 0.00 0.21 0.00 60 1024.1
20180922201523 59 129 0.0 4.0 0.00 0.21 0.00 60 1023.9
20180922201023 59 131 0.0 2.0 0.00 0.21 0.00 62 1024.0
20180922200423 59 125 0.0 1.0 0.00 0.21 0.00 59 1024.1
20180922195923 59 127 0.0 2.0 0.00 0.23 0.00 62 1024.1
20180922195324 59 146 0.0 2.0 0.00 0.23 0.00 61 1024.1
20180922194823 59 116 0.0 2.0 0.00 0.23 0.00 59 1024.0
20180922194323 59 127 1.0 2.0 0.00 0.23 0.00 60 1024.1
20180922193723 59 120 0.0 2.0 0.00 0.23 0.00 61 1024.0
20180922193123 59 131 0.0 2.0 0.00 0.23 0.00 57 1024.1
20180922192623 59 113 1.0 4.0 0.00 0.23 0.00 58 1024.0
20180922192024 60 106 0.0 2.0 0.00 0.23 0.00 57 1024.0
20180922191423 60 121 0.0 3.0 0.00 0.23 0.00 59 1024.1
20180922190823 60 91 1.0 2.0 0.00 0.23 0.00 60 1024.0
20180922190323 60 86 0.0 2.0 0.00 0.23 0.00 61 1024.1
20180922185724 59 115 0.0 2.0 0.00 0.23 0.00 60 1024.2
20180922185123 60 117 0.0 2.0 0.00 0.23 0.00 61 1024.3
20180922184623 60 141 1.0 4.0 0.00 0.23 0.00 60 1024.3
20180922184123 60 122 0.0 2.0 0.00 0.23 0.00 59 1024.3
20180922183524 60 109 0.0 2.0 0.00 0.23 0.00 62 1024.3
20180922182926 60 140 0.0 2.0 0.00 0.23 0.00 61 1024.6
20180922182424 60 115 0.0 4.0 0.00 0.23 0.00 59 1024.6
20180922181923 59 85 1.0 2.0 0.00 0.23 0.00 63 1024.6
20180922181324 59 94 1.0 3.0 0.00 0.23 0.00 61 1024.8
20180922180823 59 98 1.0 4.0 0.00 0.23 0.00 61 1024.8
20180922180323 59 151 1.0 4.0 0.00 0.23 0.00 60 1024.8
20180922175723 59 133 1.0 2.0 0.00 0.23 0.00 62 1024.8
20180922175124 59 113 0.0 2.0 0.00 0.23 0.00 61 1024.8
20180922174624 59 148 0.0 3.0 0.00 0.23 0.00 64 1024.8
20180922174030 59 128 0.0 2.0 0.00 0.23 0.00 64 1024.8
20180922173424 59 112 0.0 5.0 0.00 0.23 0.00 64 1024.8
20180922172823 59 123 1.0 4.0 0.00 0.23 0.00 63 1024.8
20180922172223 58 90 1.0 5.0 0.00 0.23 0.00 65 1024.9
20180922171723 58 90 1.0 3.0 0.00 0.23 0.00 67 1025.1
20180922171124 58 178 1.0 4.0 0.00 0.23 0.00 65 1024.9
20180922170523 58 109 0.0 5.0 0.00 0.23 0.00 66 1025.0
20180922165923 57 88 1.0 5.0 0.00 0.23 0.00 65 1024.9
20180922165423 57 105 1.0 6.0 0.00 0.23 0.00 66 1025.0
20180922164824 58 134 1.0 5.0 0.00 0.23 0.00 66 1025.3
20180922164323 58 133 2.0 4.0 0.00 0.23 0.00 66 1025.3
20180922163823 58 108 0.0 5.0 0.00 0.23 0.00 67 1025.5
20180922163223 57 156 1.0 2.0 0.00 0.23 0.00 67 1025.3
20180922162723 57 137 0.0 4.0 0.00 0.23 0.00 68 1025.5
20180922162223 57 123 1.0 4.0 0.00 0.23 0.00 68 1025.5
20180922161624 57 90 1.0 2.0 0.00 0.23 0.00 69 1025.3
20180922161023 57 116 0.0 4.0 0.00 0.23 0.00 70 1025.3
20180922160425 57 111 0.0 4.0 0.00 0.23 0.00 69 1025.3
20180922155823 57 97 0.0 5.0 0.00 0.23 0.00 68 1025.4
20180922155224 57 175 1.0 4.0 0.00 0.23 0.00 69 1025.3
20180922154723 57 105 0.0 2.0 0.00 0.23 0.00 71 1025.3
20180922154126 57 97 0.0 4.0 0.00 0.23 0.00 72 1025.1
20180922153523 57 176 0.0 5.0 0.00 0.23 0.00 72 1025.3
20180922153023 57 93 1.0 2.0 0.00 0.23 0.00 71 1025.3
20180922152428 57 114 0.0 4.0 0.00 0.23 0.00 72 1025.3
20180922151823 56 156 0.0 4.0 0.00 0.23 0.00 73 1025.0
20180922151224 56 119 1.0 4.0 0.00 0.23 0.00 71 1024.8
20180922150724 56 125 1.0 3.0 0.00 0.23 0.00 71 1025.1
20180922150223 56 133 0.0 4.0 0.00 0.23 0.00 73 1024.9
20180922145723 56 123 0.0 4.0 0.00 0.23 0.00 74 1024.9
20180922145123 56 131 0.0 3.0 0.00 0.23 0.00 74 1025.0
20180922144523 56 143 0.0 2.0 0.00 0.23 0.00 74 1025.0
20180922144022 55 92 1.0 2.0 0.00 0.23 0.00 75 1025.0
20180922143422 55 110 0.0 5.0 0.00 0.23 0.00 76 1024.8
20180922142922 55 132 0.0 7.0 0.00 0.23 0.00 75 1024.8
20180922142322 55 102 2.0 6.0 0.00 0.23 0.00 76 1024.8
20180922141723 56 124 1.0 5.0 0.00 0.23 0.00 75 1024.8
20180922141222 56 149 1.0 4.0 0.00 0.23 0.00 75 1024.8
20180922140623 57 132 0.0 2.0 0.00 0.23 0.00 74 1024.8
20180922140022 57 122 0.0 2.0 0.00 0.23 0.00 71 1024.7
20180922135423 57 125 1.0 4.0 0.00 0.23 0.00 70 1024.6
20180922134922 57 133 0.0 5.0 0.00 0.23 0.00 70 1024.4
20180922134324 57 150 1.0 3.0 0.00 0.23 0.00 70 1024.3
20180922133722 57 130 0.0 2.0 0.00 0.23 0.00 70 1024.3
20180922133222 57 129 0.0 3.0 0.00 0.23 0.00 70 1024.3
20180922132623 57 165 0.0 2.0 0.00 0.23 0.00 70 1024.3
20180922132122 57 134 1.0 5.0 0.00 0.23 0.00 69 1024.3
20180922131523 57 123 1.0 5.0 0.00 0.23 0.00 68 1023.9
20180922130922 57 131 1.0 4.0 0.00 0.23 0.00 70 1023.9
20180922130325 57 148 0.0 2.0 0.00 0.23 0.00 69 1023.9
20180922125822 57 130 0.0 4.0 0.00 0.23 0.00 71 1023.9
20180922125223 57 138 0.0 3.0 0.00 0.23 0.00 70 1023.9
20180922124722 57 123 0.0 3.0 0.00 0.23 0.00 71 1023.8
20180922124122 57 105 0.0 5.0 0.00 0.23 0.00 70 1023.6
20180922123522 57 125 0.0 2.0 0.00 0.23 0.00 74 1023.6
20180922123022 57 166 0.0 2.0 0.00 0.23 0.00 74 1023.6
20180922122422 57 125 0.0 2.0 0.00 0.23 0.00 72 1023.6
20180922121922 56 138 0.0 2.0 0.00 0.23 0.00 74 1023.5
20180922121322 56 117 0.0 1.0 0.00 0.23 0.00 74 1023.5
20180922120822 56 137 0.0 4.0 0.00 0.23 0.00 73 1023.4
20180922120222 56 139 0.0 0.0 0.00 0.23 0.00 75 1023.4
20180922115623 56 130 0.0 0.0 0.00 0.23 0.00 78 1023.4
20180922115122 56 135 0.0 0.0 0.00 0.23 0.00 78 1023.4
20180922114523 56 131 0.0 0.0 0.00 0.23 0.00 77 1023.4
20180922114022 56 135 0.0 0.0 0.00 0.23 0.00 78 1023.4
20180922113422 56 135 0.0 0.0 0.00 0.23 0.00 77 1023.2
20180922112922 56 135 0.0 0.0 0.00 0.23 0.00 77 1023.2
20180922112323 56 112 0.0 0.0 0.00 0.23 0.00 75 1023.1
20180922111722 56 127 0.0 0.0 0.00 0.23 0.00 75 1023.0
20180922111122 56 135 0.0 0.0 0.00 0.23 0.00 75 1022.7
20180922110522 57 135 0.0 0.0 0.00 0.23 0.00 74 1022.8
20180922110022 57 135 0.0 0.0 0.00 0.23 0.00 75 1022.6
20180922105422 57 121 0.0 0.0 0.00 0.23 0.00 74 1022.6
20180922104922 57 135 0.0 0.0 0.00 0.23 0.00 74 1022.5
20180922104322 57 107 0.0 0.0 0.00 0.23 0.00 74 1022.5
20180922103722 57 151 0.0 1.0 0.00 0.23 0.00 74 1022.3
20180922103122 57 151 0.0 2.0 0.00 0.23 0.00 74 1022.3
20180922102523 57 144 0.0 1.0 0.00 0.23 0.00 74 1022.0
20180922102022 57 144 0.0 2.0 0.00 0.23 0.00 73 1022.0
20180922101522 57 138 0.0 2.0 0.00 0.23 0.00 73 1022.0
20180922100924 57 149 0.0 4.0 0.00 0.23 0.00 72 1021.6
20180922100422 57 156 0.0 2.0 0.00 0.23 0.00 72 1021.6
20180922095822 57 157 0.0 4.0 0.00 0.23 0.00 72 1021.6
20180922095322 57 214 1.0 2.0 0.00 0.23 0.00 72 1021.1
20180922094722 57 138 0.0 1.0 0.00 0.23 0.00 71 1021.1
20180922094222 57 118 0.0 1.0 0.00 0.23 0.00 71 1021.1
20180922093622 57 134 0.0 1.0 0.00 0.23 0.00 70 1020.8
20180922093022 57 151 0.0 2.0 0.00 0.23 0.00 70 1020.8
20180922092522 57 133 0.0 2.0 0.00 0.23 0.00 70 1020.7
20180922091923 57 210 0.0 2.0 0.00 0.23 0.00 70 1020.7
20180922091422 57 144 0.0 2.0 0.00 0.23 0.00 70 1020.6
20180922090922 57 124 0.0 1.0 0.00 0.23 0.00 70 1020.4
20180922090322 57 145 0.0 2.0 0.00 0.23 0.00 70 1020.2
20180922085722 57 150 0.0 2.0 0.00 0.23 0.00 70 1020.2
20180922085222 58 186 0.0 2.0 0.00 0.23 0.00 69 1020.2
20180922084622 58 163 0.0 3.0 0.00 0.23 0.00 69 1020.2
20180922084022 58 147 0.0 2.0 0.00 0.23 0.00 69 1020.0
20180922083422 58 155 0.0 2.0 0.00 0.23 0.00 69 1020.0
20180922082922 58 104 0.0 2.0 0.00 0.23 0.00 69 1020.0
20180922082322 58 236 1.0 0.0 0.00 0.23 0.00 69 1019.8
20180922081723 58 156 0.0 0.0 0.00 0.23 0.00 69 1019.8
20180922081124 58 178 0.0 2.0 0.00 0.23 0.00 69 1019.5
20180922080522 58 219 1.0 2.0 0.00 0.23 0.00 69 1019.4
20180922075922 58 138 0.0 2.0 0.00 0.23 0.00 69 1019.4
20180922075323 58 152 0.0 4.0 0.00 0.23 0.00 68 1019.3
20180922074822 59 238 1.0 2.0 0.00 0.23 0.00 69 1019.3
20180922074222 59 188 0.0 2.0 0.00 0.23 0.00 69 1019.1
20180922073622 59 151 0.0 2.0 0.00 0.23 0.00 69 1019.0
20180922073022 59 197 1.0 2.0 0.00 0.23 0.00 69 1018.8
20180922072422 59 202 1.0 4.0 0.00 0.23 0.00 69 1018.8
20180922071922 59 146 0.0 4.0 0.00 0.23 0.00 69 1018.7
20180922071323 59 211 1.0 4.0 0.00 0.23 0.00 68 1018.6
20180922070722 60 241 1.0 4.0 0.00 0.23 0.00 68 1018.4
20180922070222 60 228 1.0 4.0 0.00 0.23 0.00 69 1018.4
20180922065622 60 235 1.0 4.0 0.00 0.23 0.00 68 1018.2